DW3354 Weather Reports


time (UTC)temp
C
wind
direction
speed
KPH
gust
KPH
rain 1hr
cm
rain 24hr
cm
rain mn
cm
humidity
%
barometer
mb
20260906040000 20 299 1.6 3.2 0.00 0.00 0.00 63 1018.6
20260906035500 20 300 1.6 1.6 0.00 0.00 0.00 64 1018.5
20260906035000 20 301 1.6 3.2 0.00 0.00 0.00 65 1018.4
20260906034500 20 290 4.8 4.8 0.00 0.00 0.00 65 1018.4
20260906034001 20 292 4.8 4.8 0.00 0.00 0.00 65 1018.4
20260906033500 20 296 1.6 4.8 0.00 0.00 0.00 65 1018.3
20260906033001 20 295 1.6 4.8 0.00 0.00 0.00 66 1018.2
20260906032501 20 292 1.6 1.6 0.00 0.00 0.00 66 1018.2
20260906032001 20 292 0.0 1.6 0.00 0.00 0.00 66 1018.0
20260906031500 20 274 1.6 4.8 0.00 0.00 0.00 66 1017.9
20260906031000 20 297 3.2 3.2 0.00 0.00 0.00 66 1017.9
20260906030501 20 267 4.8 4.8 0.00 0.00 0.00 67 1017.8
20260906030001 21 301 3.2 4.8 0.00 0.00 0.00 68 1017.6
20260906025500 21 261 1.6 4.8 0.00 0.00 0.00 68 1017.6
20260906025001 21 291 1.6 1.6 0.00 0.00 0.00 69 1017.6
20260906024501 21 291 1.6 3.2 0.00 0.00 0.00 68 1017.6
20260906024001 21 295 3.2 3.2 0.00 0.00 0.00 68 1017.5
20260906023501 21 271 3.2 8.0 0.00 0.00 0.00 69 1017.4
20260906023000 21 265 4.8 4.8 0.00 0.00 0.00 69 1017.3
20260906022501 21 273 0.0 3.2 0.00 0.00 0.00 68 1017.4
20260906022001 21 270 1.6 3.2 0.00 0.00 0.00 68 1017.3
20260906021501 21 300 1.6 3.2 0.00 0.00 0.00 67 1017.2
20260906021001 22 292 3.2 4.8 0.00 0.00 0.00 66 1017.2
20260906020501 22 284 3.2 4.8 0.00 0.00 0.00 65 1017.1
20260906020001 22 312 1.6 4.8 0.00 0.00 0.00 65 1017.0
20260906015500 22 307 3.2 4.8 0.00 0.00 0.00 65 1016.9
20260906015000 22 277 3.2 3.2 0.00 0.00 0.00 65 1016.7
20260906014501 22 280 1.6 3.2 0.00 0.00 0.00 64 1016.7
20260906014001 22 290 1.6 3.2 0.00 0.00 0.00 63 1016.7
20260906013500 22 291 3.2 3.2 0.00 0.00 0.00 64 1016.7
20260906013000 22 278 3.2 4.8 0.00 0.00 0.00 63 1016.7
20260906012500 22 289 1.6 4.8 0.00 0.00 0.00 62 1016.6
20260906012000 23 327 0.0 4.8 0.00 0.00 0.00 62 1016.6
20260906011501 23 311 6.4 8.0 0.00 0.00 0.00 62 1016.6
20260906011001 23 288 4.8 8.0 0.00 0.00 0.00 62 1016.5
20260906010501 23 275 4.8 9.7 0.00 0.00 0.00 61 1016.4
20260906010000 23 290 4.8 8.0 0.00 0.00 0.00 62 1016.4
20260906005500 23 294 4.8 8.0 0.00 0.00 0.00 61 1016.5
20260906005001 23 286 6.4 9.7 0.00 0.00 0.00 61 1016.5
20260906004501 23 290 4.8 11.3 0.00 0.00 0.00 61 1016.6
20260906004001 23 284 8.0 9.7 0.00 0.00 0.00 61 1016.5
20260906003501 23 302 4.8 14.5 0.00 0.00 0.00 61 1016.5
20260906003000 23 303 3.2 14.5 0.00 0.00 0.00 61 1016.3
20260906002501 23 328 4.8 9.7 0.00 0.00 0.00 61 1016.3
20260906002000 23 324 6.4 16.1 0.00 0.00 0.00 61 1016.1
20260906001501 23 340 6.4 8.0 0.00 0.00 0.00 61 1016.0
20260906001001 23 352 4.8 9.7 0.00 0.00 0.00 62 1016.0
20260906000500 22 341 4.8 9.7 0.00 0.00 0.00 62 1015.9
20260906000001 22 305 4.8 11.3 0.00 0.00 0.00 63 1016.0
20260905235500 22 353 3.2 8.0 0.00 0.00 0.00 64 1015.8
20260905235001 22 322 4.8 9.7 0.00 0.00 0.00 65 1015.9
20260905234501 21 339 4.8 9.7 0.00 0.00 0.00 65 1015.8
20260905234001 21 340 1.6 9.7 0.00 0.00 0.00 64 1015.8
20260905233500 21 351 4.8 8.0 0.00 0.00 0.00 64 1015.8
20260905233000 22 3 4.8 9.7 0.00 0.00 0.00 64 1015.8
20260905232501 22 351 4.8 8.0 0.00 0.00 0.00 63 1015.8
20260905232001 22 341 3.2 8.0 0.00 0.00 0.00 63 1015.8
20260905231501 22 353 3.2 8.0 0.00 0.00 0.00 62 1015.7
20260905231001 22 1 4.8 8.0 0.00 0.00 0.00 61 1015.6
20260905230501 23 353 4.8 8.0 0.00 0.00 0.00 60 1015.5
20260905230000 23 325 4.8 8.0 0.00 0.00 0.00 60 1015.4
20260905225501 23 322 4.8 4.8 0.00 0.00 0.00 59 1015.4
20260905225001 23 357 3.2 8.0 0.00 0.00 0.00 59 1015.5
20260905224501 23 341 4.8 8.0 0.00 0.00 0.00 58 1015.5
20260905224000 24 294 4.8 9.7 0.00 0.00 0.00 57 1015.5
20260905223500 24 312 4.8 9.7 0.00 0.00 0.00 57 1015.5
20260905223000 24 336 3.2 9.7 0.00 0.00 0.00 56 1015.5
20260905222501 24 10 6.4 9.7 0.00 0.00 0.00 56 1015.6
20260905222001 23 302 6.4 11.3 0.00 0.00 0.00 56 1015.5
20260905221502 24 318 3.2 12.9 0.00 0.00 0.00 56 1015.5
20260905221000 24 303 9.7 11.3 0.00 0.00 0.00 56 1015.4
20260905220501 24 283 8.0 12.9 0.00 0.00 0.00 56 1015.5
20260905220001 24 307 4.8 9.7 0.00 0.00 0.00 55 1015.5
20260905215501 24 338 4.8 14.5 0.00 0.00 0.00 55 1015.4
20260905215001 24 4 3.2 12.9 0.00 0.00 0.00 55 1015.4
20260905214501 24 311 6.4 9.7 0.00 0.00 0.00 55 1015.4
20260905214001 24 300 6.4 11.3 0.00 0.00 0.00 55 1015.3
20260905213501 24 314 4.8 9.7 0.00 0.00 0.00 55 1015.2
20260905213000 24 316 3.2 3.2 0.00 0.00 0.00 54 1015.0
20260905212501 24 291 4.8 4.8 0.00 0.00 0.00 54 1014.9
20260905212001 25 291 4.8 8.0 0.00 0.00 0.00 53 1014.9
20260905211501 25 293 6.4 9.7 0.00 0.00 0.00 53 1014.8
20260905211001 25 276 4.8 11.3 0.00 0.00 0.00 52 1014.8
20260905210501 25 7 4.8 9.7 0.00 0.00 0.00 52 1014.7
20260905210001 25 321 4.8 11.3 0.00 0.00 0.00 52 1014.7
20260905205501 23 351 8.0 11.3 0.00 0.00 0.00 54 1014.7
20260905205001 23 345 3.2 4.8 0.00 0.00 0.00 57 1014.7
20260905204500 23 325 1.6 3.2 0.00 0.00 0.00 56 1014.7
20260905204001 24 325 1.6 1.6 0.00 0.00 0.00 55 1014.8
20260905203501 24 325 1.6 3.2 0.00 0.00 0.00 54 1014.7
20260905203001 24 328 1.6 1.6 0.00 0.00 0.00 54 1014.7
20260905202501 23 283 1.6 3.2 0.00 0.00 0.00 55 1014.5
20260905202001 23 282 1.6 1.6 0.00 0.00 0.00 57 1014.4
20260905201501 23 293 3.2 3.2 0.00 0.00 0.00 59 1014.4
20260905201001 23 341 0.0 0.0 0.00 0.00 0.00 61 1014.3
20260905200501 23 341 0.0 1.6 0.00 0.00 0.00 61 1014.3
20260905200000 23 341 0.0 1.6 0.00 0.00 0.00 60 1014.2
20260905195501 23 237 0.0 1.6 0.00 0.00 0.00 59 1014.0
20260905195001 23 22 0.0 0.0 0.00 0.00 0.00 62 1014.0
20260905194501 23 18 0.0 0.0 0.00 0.00 0.00 63 1014.0
20260905194000 23 18 0.0 0.0 0.00 0.00 0.00 62 1014.0
20260905193500 23 18 0.0 0.0 0.00 0.00 0.00 61 1013.9
20260905193000 23 18 0.0 0.0 0.00 0.00 0.00 62 1013.9
20260905192501 23 17 0.0 0.0 0.00 0.00 0.00 62 1013.9
20260905192001 24 18 0.0 0.0 0.00 0.00 0.00 61 1013.9
20260905191501 24 18 1.6 1.6 0.00 0.00 0.00 61 1013.8
20260905191001 24 18 0.0 0.0 0.00 0.00 0.00 60 1013.8
20260905190500 24 18 0.0 0.0 0.00 0.00 0.00 61 1013.9
20260905190000 24 18 0.0 1.6 0.00 0.00 0.00 61 1013.9
20260905185501 25 18 0.0 1.6 0.00 0.00 0.00 61 1014.0
20260905185000 25 18 0.0 1.6 0.00 0.00 0.00 60 1014.0
20260905184501 25 342 1.6 1.6 0.00 0.00 0.00 59 1013.9
20260905184001 25 342 0.0 0.0 0.00 0.00 0.00 59 1013.9
20260905183501 25 342 0.0 0.0 0.00 0.00 0.00 58 1013.9
20260905183001 25 342 0.0 0.0 0.00 0.00 0.00 58 1013.8
20260905182501 25 342 0.0 1.6 0.00 0.00 0.00 58 1013.8
20260905182000 25 342 0.0 0.0 0.00 0.00 0.00 58 1013.8
20260905181501 25 342 0.0 0.0 0.00 0.00 0.00 58 1013.7
20260905181001 25 342 0.0 1.6 0.00 0.00 0.00 57 1013.6
20260905180501 26 342 0.0 1.6 0.00 0.00 0.00 56 1013.6
20260905180000 26 342 0.0 0.0 0.00 0.00 0.00 56 1013.5
20260905175501 26 342 0.0 0.0 0.00 0.00 0.00 56 1013.5
20260905175001 26 342 0.0 0.0 0.00 0.00 0.00 55 1013.5
20260905174501 26 342 0.0 1.6 0.00 0.00 0.00 54 1013.4
20260905174001 26 342 0.0 0.0 0.00 0.00 0.00 53 1013.4
20260905173501 26 342 0.0 0.0 0.00 0.00 0.00 53 1013.4
20260905173001 27 342 0.0 0.0 0.00 0.00 0.00 52 1013.3
20260905172500 27 342 0.0 0.0 0.00 0.00 0.00 52 1013.3
20260905172001 27 342 0.0 0.0 0.00 0.00 0.00 51 1013.2
20260905171501 27 342 0.0 0.0 0.00 0.00 0.00 51 1013.2
20260905171001 27 343 0.0 0.0 0.00 0.00 0.00 50 1013.1
20260905170500 28 343 0.0 0.0 0.00 0.00 0.00 48 1013.1
20260905170001 28 343 0.0 0.0 0.00 0.00 0.00 48 1013.0
20260905165501 28 343 0.0 0.0 0.00 0.00 0.00 47 1013.1
20260905165001 29 343 0.0 0.0 0.00 0.00 0.00 46 1013.0
20260905164501 30 343 0.0 0.0 0.00 0.00 0.00 45 1012.9
20260905164001 30 343 0.0 0.0 0.00 0.00 0.00 45 1013.0
20260905163501 31 343 1.6 1.6 0.00 0.00 0.00 42 1013.0
20260905163001 32 343 0.0 1.6 0.00 0.00 0.00 40 1012.9
20260905162501 32 344 1.6 4.8 0.00 0.00 0.00 38 1012.9
20260905162001 32 292 3.2 8.0 0.00 0.00 0.00 37 1013.0
20260905161501 33 335 4.8 8.0 0.00 0.00 0.00 37 1013.0
20260905161000 33 283 1.6 1.6 0.00 0.00 0.00 35 1013.0
20260905160500 34 281 4.8 4.8 0.00 0.00 0.00 34 1013.0
20260905160001 35 301 4.8 8.0 0.00 0.00 0.00 34 1013.0
20260905155500 35 250 0.0 8.0 0.00 0.00 0.00 34 1013.1
20260905155000 35 230 1.6 4.8 0.00 0.00 0.00 36 1013.0
20260905154501 35 265 3.2 4.8 0.00 0.00 0.00 36 1013.0
20260905154001 35 258 0.0 1.6 0.00 0.00 0.00 35 1013.1
20260905153500 35 274 0.0 1.6 0.00 0.00 0.00 35 1013.1
20260905153001 36 234 3.2 3.2 0.00 0.00 0.00 33 1013.1
20260905152501 36 254 0.0 3.2 0.00 0.00 0.00 32 1013.1
20260905152001 36 286 3.2 9.7 0.00 0.00 0.00 33 1013.1
20260905151501 36 278 1.6 8.0 0.00 0.00 0.00 33 1013.1
20260905151000 36 282 3.2 3.2 0.00 0.00 0.00 33 1013.1
20260905150501 36 262 3.2 9.7 0.00 0.00 0.00 31 1013.1
20260905150001 36 287 8.0 14.5 0.00 0.00 0.00 33 1013.2
20260905145501 36 282 6.4 11.3 0.00 0.00 0.00 31 1013.3
20260905145000 36 296 3.2 11.3 0.00 0.00 0.00 31 1013.2
20260905144501 36 302 3.2 4.8 0.00 0.00 0.00 31 1013.3
20260905144001 36 292 14.5 16.1 0.00 0.00 0.00 31 1013.3
20260905143501 36 236 1.6 1.6 0.00 0.00 0.00 32 1013.3
20260905143001 36 128 1.6 3.2 0.00 0.00 0.00 31 1013.4
20260905142501 36 254 4.8 8.0 0.00 0.00 0.00 32 1013.5
20260905142001 36 239 1.6 9.7 0.00 0.00 0.00 31 1013.5
20260905141501 36 321 4.8 8.0 0.00 0.00 0.00 33 1013.5
20260905141001 36 228 3.2 9.7 0.00 0.00 0.00 31 1013.6
20260905140501 36 200 0.0 4.8 0.00 0.00 0.00 31 1013.6
20260905140001 36 167 6.4 11.3 0.00 0.00 0.00 31 1013.8
20260905135501 36 288 6.4 20.9 0.00 0.00 0.00 32 1013.9
20260905135001 37 255 14.5 24.1 0.00 0.00 0.00 31 1013.9
20260905134501 37 295 6.4 11.3 0.00 0.00 0.00 31 1013.8
20260905134001 36 300 3.2 9.7 0.00 0.00 0.00 32 1013.8
20260905133501 36 309 3.2 4.8 0.00 0.00 0.00 31 1014.0
20260905133001 36 281 8.0 11.3 0.00 0.00 0.00 32 1013.9
20260905132501 36 360 8.0 12.9 0.00 0.00 0.00 31 1014.0
20260905132001 36 303 4.8 11.3 0.00 0.00 0.00 31 1014.1
20260905131500 36 268 3.2 12.9 0.00 0.00 0.00 31 1014.1
20260905131001 36 220 8.0 11.3 0.00 0.00 0.00 31 1014.1
20260905130501 36 170 3.2 8.0 0.00 0.00 0.00 31 1014.1
20260905130001 36 322 6.4 9.7 0.00 0.00 0.00 31 1014.3
20260905125500 36 247 1.6 8.0 0.00 0.00 0.00 32 1014.3
20260905125001 36 264 0.0 8.0 0.00 0.00 0.00 30 1014.3
20260905124501 36 268 3.2 11.3 0.00 0.00 0.00 32 1014.3
20260905124001 36 226 6.4 12.9 0.00 0.00 0.00 31 1014.4
20260905123500 36 237 4.8 8.0 0.00 0.00 0.00 32 1014.5
20260905123001 36 247 1.6 11.3 0.00 0.00 0.00 31 1014.5
20260905122501 36 289 4.8 9.7 0.00 0.00 0.00 32 1014.5
20260905122000 36 1 3.2 9.7 0.00 0.00 0.00 33 1014.5
20260905121501 36 277 4.8 11.3 0.00 0.00 0.00 32 1014.7
20260905121001 36 276 4.8 9.7 0.00 0.00 0.00 32 1014.8
20260905120501 36 276 8.0 11.3 0.00 0.00 0.00 33 1014.9
20260905120001 36 294 8.0 12.9 0.00 0.00 0.00 34 1014.8
20260905115500 35 50 8.0 9.7 0.00 0.00 0.00 33 1015.0
20260905115001 35 299 9.7 16.1 0.00 0.00 0.00 33 1015.1
20260905114501 35 298 4.8 16.1 0.00 0.00 0.00 32 1015.2
20260905114000 35 279 4.8 12.9 0.00 0.00 0.00 33 1015.2
20260905113501 35 34 1.6 3.2 0.00 0.00 0.00 35 1015.3
20260905113001 35 151 4.8 8.0 0.00 0.00 0.00 34 1015.4
20260905112501 35 175 4.8 8.0 0.00 0.00 0.00 34 1015.4
20260905112001 35 342 1.6 11.3 0.00 0.00 0.00 36 1015.4
20260905111501 35 337 4.8 8.0 0.00 0.00 0.00 35 1015.5
20260905111001 35 222 1.6 9.7 0.00 0.00 0.00 37 1015.5
20260905110501 34 251 1.6 4.8 0.00 0.00 0.00 37 1015.6
20260905110001 34 317 1.6 8.0 0.00 0.00 0.00 36 1015.7
20260905105501 34 203 1.6 3.2 0.00 0.00 0.00 37 1015.7
20260905105001 33 256 4.8 4.8 0.00 0.00 0.00 39 1015.8
20260905104501 33 125 4.8 9.7 0.00 0.00 0.00 38 1015.8
20260905104001 33 194 4.8 8.0 0.00 0.00 0.00 38 1015.8
20260905103500 33 168 3.2 8.0 0.00 0.00 0.00 37 1016.0
20260905103000 33 320 4.8 9.7 0.00 0.00 0.00 38 1016.0
20260905102501 33 309 3.2 8.0 0.00 0.00 0.00 38 1016.0
20260905102001 33 336 4.8 17.7 0.00 0.00 0.00 37 1016.0
20260905101501 33 292 4.8 9.7 0.00 0.00 0.00 38 1016.1
20260905101001 33 145 4.8 8.0 0.00 0.00 0.00 38 1016.0
20260905100501 33 2 1.6 8.0 0.00 0.00 0.00 40 1016.1
20260905100001 32 146 1.6 8.0 0.00 0.00 0.00 39 1016.1
20260905095501 32 340 3.2 9.7 0.00 0.00 0.00 40 1016.2
20260905095000 32 19 1.6 4.8 0.00 0.00 0.00 41 1016.3
20260905094501 32 34 1.6 9.7 0.00 0.00 0.00 43 1016.3
20260905094001 32 172 3.2 9.7 0.00 0.00 0.00 40 1016.4
20260905093501 32 306 6.4 11.3 0.00 0.00 0.00 42 1016.4
20260905093001 31 302 6.4 8.0 0.00 0.00 0.00 44 1016.4
20260905092500 31 238 1.6 4.8 0.00 0.00 0.00 43 1016.5
20260905092001 31 206 3.2 9.7 0.00 0.00 0.00 43 1016.5
20260905091501 31 327 4.8 12.9 0.00 0.00 0.00 42 1016.5
20260905091000 31 210 1.6 9.7 0.00 0.00 0.00 45 1016.5
20260905090500 30 269 1.6 8.0 0.00 0.00 0.00 46 1016.6
20260905090000 30 340 4.8 9.7 0.00 0.00 0.00 45 1016.6
20260905085501 30 216 1.6 4.8 0.00 0.00 0.00 46 1016.7
20260905085001 29 248 8.0 9.7 0.00 0.00 0.00 46 1016.7
20260905084501 29 290 3.2 8.0 0.00 0.00 0.00 46 1016.7
20260905084001 29 1 8.0 11.3 0.00 0.00 0.00 46 1016.8
20260905083501 29 325 4.8 11.3 0.00 0.00 0.00 48 1016.8
20260905083001 29 310 6.4 9.7 0.00 0.00 0.00 48 1016.8
20260905082501 29 327 0.0 1.6 0.00 0.00 0.00 46 1016.8
20260905082001 28 347 1.6 4.8 0.00 0.00 0.00 47 1016.8
20260905081501 28 309 1.6 4.8 0.00 0.00 0.00 49 1016.8
20260905081001 27 326 3.2 8.0 0.00 0.00 0.00 48 1016.9
20260905080501 27 308 1.6 8.0 0.00 0.00 0.00 47 1016.9
20260905080001 27 153 4.8 4.8 0.00 0.00 0.00 49 1016.9
20260905075501 26 168 1.6 3.2 0.00 0.00 0.00 50 1017.0
20260905075001 26 132 1.6 4.8 0.00 0.00 0.00 51 1017.0
20260905074501 26 137 1.6 4.8 0.00 0.00 0.00 51 1017.0
20260905074000 26 155 3.2 3.2 0.00 0.00 0.00 52 1017.1
20260905073501 25 236 0.0 3.2 0.00 0.00 0.00 53 1017.0
20260905073001 25 170 0.0 3.2 0.00 0.00 0.00 54 1017.0
20260905072501 25 321 1.6 4.8 0.00 0.00 0.00 56 1017.0
20260905072001 24 310 1.6 3.2 0.00 0.00 0.00 56 1017.0
20260905071500 23 167 3.2 4.8 0.00 0.00 0.00 59 1017.1
20260905071001 23 192 0.0 4.8 0.00 0.00 0.00 61 1017.0
20260905070501 23 208 0.0 1.6 0.00 0.00 0.00 61 1017.0
20260905070001 22 312 3.2 4.8 0.00 0.00 0.00 62 1017.1
20260905065500 22 260 0.0 3.2 0.00 0.00 0.00 64 1017.1
20260905065001 21 257 1.6 3.2 0.00 0.00 0.00 67 1017.1
20260905064501 21 263 1.6 1.6 0.00 0.00 0.00 67 1017.0
20260905064001 20 309 0.0 3.2 0.00 0.00 0.00 69 1017.0
20260905063501 20 172 1.6 3.2 0.00 0.00 0.00 69 1017.1
20260905063001 20 259 1.6 3.2 0.00 0.00 0.00 71 1017.0
20260905062501 19 89 0.0 1.6 0.00 0.00 0.00 71 1017.1
20260905062001 19 338 1.6 4.8 0.00 0.00 0.00 72 1017.1
20260905061501 19 327 1.6 4.8 0.00 0.00 0.00 72 1017.1
20260905061000 18 286 3.2 4.8 0.00 0.00 0.00 73 1017.2
20260905060501 18 357 0.0 1.6 0.00 0.00 0.00 73 1017.3
20260905060000 18 292 4.8 4.8 0.00 0.00 0.00 73 1017.2
20260905055501 18 337 1.6 4.8 0.00 0.00 0.00 74 1017.1
20260905055001 18 346 4.8 4.8 0.00 0.00 0.00 74 1017.1
20260905054501 18 349 3.2 4.8 0.00 0.00 0.00 75 1017.1
20260905054001 18 345 1.6 4.8 0.00 0.00 0.00 76 1017.1
20260905053501 17 357 4.8 8.0 0.00 0.00 0.00 77 1017.2
20260905053001 17 358 1.6 4.8 0.00 0.00 0.00 79 1017.2
20260905052500 17 350 3.2 4.8 0.00 0.00 0.00 80 1017.2
20260905052001 16 325 4.8 8.0 0.00 0.00 0.00 80 1017.2
20260905051501 16 341 1.6 3.2 0.00 0.00 0.00 81 1017.2
20260905051000 16 292 1.6 3.2 0.00 0.00 0.00 81 1017.2
20260905050501 16 281 4.8 4.8 0.00 0.00 0.00 81 1017.2
20260905050001 16 314 1.6 1.6 0.00 0.00 0.00 82 1017.1
20260905045500 16 305 1.6 3.2 0.00 0.00 0.00 82 1017.1
20260905045001 16 307 3.2 3.2 0.00 0.00 0.00 82 1017.1
20260905044502 16 323 1.6 3.2 0.00 0.00 0.00 82 1017.2
20260905044001 15 322 0.0 1.6 0.00 0.00 0.00 82 1017.3
20260905043501 15 318 1.6 3.2 0.00 0.00 0.00 83 1017.2
20260905043001 15 299 0.0 3.2 0.00 0.00 0.00 83 1017.2
20260905042500 15 311 1.6 3.2 0.00 0.00 0.00 83 1017.1
20260905042001 15 339 0.0 1.6 0.00 0.00 0.00 83 1017.1
20260905041501 15 339 0.0 1.6 0.00 0.00 0.00 83 1017.0
20260905041001 15 338 1.6 3.2 0.00 0.00 0.00 83 1016.9
20260905040501 15 314 1.6 3.2 0.00 0.00 0.00 83 1016.8